www.pogodaiklimat.ru
ПОГОДА в Остине
Время
и дата
00:35 23.05
00:55 23.05
01:15 23.05
01:35 23.05
01:55 23.05
02:15 23.05
02:35 23.05
02:55 23.05
03:15 23.05
03:35 23.05
03:55 23.05
04:15 23.05
04:35 23.05
04:55 23.05
05:15 23.05
05:35 23.05
05:55 23.05
06:15 23.05
06:35 23.05
06:55 23.05
07:15 23.05
07:35 23.05
07:55 23.05
08:15 23.05
08:35 23.05
08:55 23.05
09:15 23.05
09:35 23.05
09:55 23.05
10:15 23.05
10:35 23.05
10:55 23.05
11:15 23.05
11:35 23.05
11:55 23.05
12:15 23.05
12:35 23.05
12:55 23.05
13:15 23.05
13:35 23.05
13:55 23.05
14:15 23.05
14:35 23.05
14:55 23.05
15:15 23.05
15:35 23.05
15:55 23.05
16:15 23.05
Ветер
(напр.,м/с)
Видим. Явления Облачность Т
(С)
Тd
(С)
f
(%)
Тe
(С)
Тes
(С)
Комфортность P
(гПа)
Po
(гПа)
Тmin
(С)
Tmax
(С)
R
(мм)
R24
(мм)
S
(см)
штиль 0 16 км ясно +5.0 +1.0 75 +4 +4 984.0
штиль 0 16 км ясно +5.0 +1.0 75 +4 +4 983.7
штиль 0 16 км ясно +3.0 +1.0 87 +2 +2 984.0
штиль 0 16 км ясно +4.0 +1.0 81 +3 +3 984.0
штиль 0 16 км ясно +4.0 0.0 75 +3 +3 984.0
штиль 0 16 км ясно +3.0 +1.0 87 +2 +2 983.7
штиль 0 16 км ясно +3.0 +1.0 87 +2 +2 983.7
В 1 16 км ясно +2.0 0.0 87 -1 -1 983.7
штиль 0 16 км ясно +2.0 0.0 87 +1 +1 983.7
штиль 0 16 км ясно +2.0 +1.0 93 +1 +1 983.7
штиль 0 16 км ясно +2.0 0.0 87 +1 +1 983.7
штиль 0 11 км ясно +2.0 0.0 87 +1 +1 983.7
штиль 0 16 км ясно +2.0 0.0 87 +1 +1 983.4
штиль 0 16 км ясно +1.0 0.0 93 0 0 983.1
штиль 0 16 км ясно +2.0 0.0 87 +1 +1 983.1
штиль 0 16 км ясно +3.0 0.0 81 +2 +2 983.1
штиль 0 16 км ясно +4.0 +1.0 81 +3 +3 983.4
штиль 0 16 км ясно +6.0 +2.0 75 +5 +7 983.4
штиль 0 16 км ясно +8.0 +3.0 71 +7 +9 983.4
ЮВ 1 16 км ясно +9.0 +3.0 66 +8 +9 983.4
ЮВ 1 16 км ясно +10.0 +2.0 58 +9 +12 983.7
В 1 16 км ясно +11.0 +2.0 54 +10 +13 983.7
В 1 16 км ясно +12.0 +1.0 47 +11 +15 983.7
ЮВ 1 16 км ясно +13.0 0.0 41 +12 +18 983.7
В 1 16 км ясно +13.0 -1.0 38 +13 +20 983.4
ЮВ 1 16 км ясно +13.0 -1.0 38 +13 +20 983.4
штиль 0 16 км ясно +14.0 -1.0 36 +14 +29 опасность
простуды
983.4
В 2 16 км ясно +14.0 0.0 38 +13 +20 983.4
штиль 0 16 км ясно +14.0 -1.0 36 +14 +29 опасность
простуды
983.1
В 1 16 км ясно +14.0 -1.0 36 +13 +26 опасность
простуды
982.8
В 2 16 км ясно +14.0 -1.0 36 +13 +20 982.8
В 1 16 км ясно +14.0 -1.0 36 +13 +26 опасность
простуды
982.8
В 2 16 км ясно +13.0 -2.0 35 +11 +21 опасность
простуды
982.4
В 2 16 км ясно +14.0 -1.0 36 +13 +25 опасность
простуды
982.1
В 1 16 км ясно +15.0 -1.0 33 +15 +33 опасность
простуды
981.8
В 1 16 км ясно +15.0 0.0 36 +15 +30 опасность
простуды
981.8
СВ 1 16 км ясно +15.0 -1.0 33 +15 +34 опасность
простуды
981.5
СВ 2 16 км ясно +15.0 -1.0 33 +14 +27 опасность
простуды
981.1
В 1 16 км ясно +15.0 -1.0 33 +15 +33 опасность
простуды
981.1
В 1 16 км ясно +16.0 -1.0 31 +16 +35 опасность
простуды
980.8
СВ 1 16 км ясно +16.0 +1.0 36 +16 +34 опасность
простуды
980.5
В 1 16 км ясно +16.0 +1.0 36 +16 +29 опасность
простуды
980.5
В 2 16 км ясно +16.0 +1.0 36 +15 +26 опасность
простуды
980.2
В 1 16 км ясно +16.0 +1.0 36 +16 +29 опасность
простуды
980.2
ЮВ 1 16 км ясно +16.0 +2.0 39 +16 +26 979.8
В 2 16 км ясно +16.0 +1.0 36 +15 +24 979.8
В 1 16 км ясно +16.0 +1.0 36 +16 +26 979.8
В 1 16 км ясно +16.0 +1.0 36 +16 +25 979.5
Местоположение метеостанции Austin Municipal Airport: широта 43.6667 долгота -92.9333 высота над уровнем моря 375 м.
В архиве по умолчанию представлена погода в Остине за последние 1-2 суток. Обновление информации о фактической погоде в базе происходит ежечасно! Архивные данные за месяц целиком и за предыдущие месяцы Вы можете получить, выбрав интересующий диапазон дат из раскрывающегося списка и нажав кнопку "Ввод!".
Внимание! Архив погоды МЕТАР в базе сайта по станциям, не включенным в климатический монитор, хранится не более 60 дней. Нет смысла пытаться выбрать более раннюю дату.
*Определитесь, кто Вы:
Внимание! Время в таблицах - местное (без учета летнего времени). Для получения всемирного времени необходимо вычесть поправку, которая равна -6 ч.
Смотрите также архив погоды в соседних городах и на ближайших метеорологических станциях:
Партнеры нашего сайта:      
Пояснения к столбцам:
  • Ветер - указаны скорость ветра в м/с - средняя за 10 мин, порывы в срок и между сроками (в фигурных скобках) и направление, откуда дует ветер: С - северный,
  • СВ - северо-восточный, В - восточный, ЮВ - юго-восточный, Ю - южный, ЮЗ - юго-западный, З - западный, СЗ - северо-западный.
  • Видимость - горизонтальная дальность видимости в метрах или километрах. При видимости от 1 до 10 км при отсутствии осадков обычно наблюдается дымка, при ухудшении видимости до 1 км и менее - туман. В сухую погоду видимость может ухудшаться дымом, пылью или мглою.
  • Явления - указаны атмосферные явления, наблюдавшиеся в срок или в последний час перед сроком; фигурными скобками обозначены явления, наблюдавшиеся между сроками (за 1-3 часа до срока); квадратными скобками обозначены град или гололедные отложения с указанием их диаметра в мм.
  • Облачность - указаны через наклонную черту общая и нижняя облачность в баллах и высота нижней границы облаков в метрах; квадратными скобками обозначены формы облаков: Ci - перистые, Cs - перисто-слоистые, Cc - перисто-кучевые, Ac - высококучевые, As - высокослоистые, Sc - слоисто-кучевые, Ns - слоисто-дождевые, Cu - кучевые, Cb - кучево-дождевые. Подробнее классификацию облаков см. в Атласе облаков (PDF).
  • T - Температура воздуха - температура, измеренная на высоте 2 м над землей.
  • Td - Температура точки росы - температура, при понижении до которой содержащийся в воздухе водяной пар достигнет насыщения.
  • f - Относительная влажность воздуха - влажноcть воздуха, измеренная на высоте 2 м над землей.
  • Te - Эффективная температура - температура, которую ощущает одетый по сезону человек в тени. Характеристика душности погоды. При расчете учитывается влияние влажности воздуха и скорости ветра на теплоощущения человека.
  • Tes - Эффективная температура на солнце - температура, которую ощущает человек, с поправкой на солнечный нагрев. Характеристика знойности погоды. Зависит от высоты солнца над горизонтом, облачности и скорости ветра. Ночью, в пасмурную погоду, а также при ветре 12 м/с и более поправка равна нулю.
  • P - Атмосферное давление - приведенное к уровню моря атмосферное давление.
  • Po - Атмосферное давление - измеренное на уровне метеостанции атмосферное давление.
  • Tmin - Минимальная температура - минимум температуры воздуха на высоте 2 м над землей.
  • Tmax - Максимальная температура - максимум температуры воздуха на высоте 2 м над землей.
  • R - Количество осадков - Количество выпавших осадков за период времени, мм. При наведении курсора мыши на число - период времени, за который выпало указанное количество осадков.
  • R24 - Количество осадков - Количество выпавших осадков за 24 часа, мм.
  • S - Снежный покров - Высота снежного покрова, см. При наведении курсора мыши на число - состояние снежного покрова и степень покрытия местности в баллах.